Regional Weather Roundup
Issued by NWS Jackson, KY

Home | Current Version | Previous Version | Text Only | Print | Product List | Glossary Off
Versions: 1 2 3 4 5 6 7 8 9 10 11 12 13 14 15 16 17 18 19 20 21 22 23 24 25 26 27 28

000
ASUS43 KJKL 050110
RWRJKL

EAST KENTUCKY HOURLY WEATHER ROUNDUP
NATIONAL WEATHER SERVICE JACKSON KY
900 PM EDT WED MAY 04 2016

NOTE: "FAIR" INDICATES FEW OR NO CLOUDS BELOW 12,000 FEET WITH
NO SIGNIFICANT WEATHER AND/OR OBSTRUCTIONS TO VISIBILITY.

* THESE REPORTS ARE NOT UNDER NWS QUALITY CONTROL AND MAY NOT
  REPORT WEATHER SUCH AS PRECIPITATION AND FOG.

KYZ079-080-083-085-087-088-110-112-115-119-120-050200
...EASTERN KENTUCKY...

CITY           SKY/WX    TMP DP  RH WIND       PRES   REMARKS
JACKSON        MOCLDY    48  44  86 NW5       29.72R
LONDON         MOCLDY    48  45  89 CALM      29.74R
SOMERSET*      MOCLDY    50  45  81 NW5       29.76R
MONTICELLO*    CLOUDY    53  45  74 N12       29.77R
WILLIAMSBURG*  MOCLDY    46  46 100 CALM      29.75R VSB 3/4
MIDDLESBORO*   CLOUDY    47  47  99 NW3       29.75F
HARLAN APT*    CLOUDY    46  45  93 CALM      29.73F
PIKE CO APT*   CLOUDY    49  49  99 NW3       29.71R
BIG SANDY APT* DRIZZLE   49  49  97 CALM      29.71S
MOREHEAD APT*  CLOUDY    50  45  81 NW9G15    29.74R
$$

KYZ035-036-041-042-044-050-067-078-099-050200
...CENTRAL KENTUCKY...

CITY           SKY/WX    TMP DP  RH WIND       PRES   REMARKS
MT STERLING*   DRIZZLE   50  45  81 NE6       29.75R
FLEMING/MASON* MOCLDY    50  40  68 NW6       29.74R
DANVILLE*      PTCLDY    50  45  81 CALM      29.75R
RICHMOND*      MOCLDY    52  45  76 NW3       29.73R
LEXINGTON      CLEAR     51  40  65 N9        29.74R
FRANKFORT      MOCLDY    54  38  54 N13G18    29.74R
LOUISVILLE     PTCLDY    54  39  57 NW9       29.77R
LEBANON*         N/A     50  46  87 NW5       29.75R
BOWLING GREEN  PTCLDY    59  40  49 NW8       29.78R
$$

KYZ091>093-OHZ055-061-077-WVZ005-015-034-035-042-050200
...SOUTHERN OHIO/WEST VIRGINIA...

CITY           SKY/WX    TMP DP  RH WIND       PRES   REMARKS
COVINGTON      PTCLDY    49  37  63 N9        29.74R
COLUMBUS       MOCLDY    47  40  76 NW12G20   29.69R
DAYTON         CLOUDY    47  36  65 NW12      29.73S
WILMINGTON     MOCLDY    48  38  68 NW14      29.72R
HUNTINGTON     CLOUDY    52  49  89 CALM      29.69R
CHARLESTON     LGT RAIN  51  48  89 SW3       29.69S
PINEVILLE*     LGT RAIN  52  44  74 MISG      29.75S
BECKLEY        CLOUDY    49  44  83 NW8       29.70R
$$

VAZ002-007-008-TNZ017-027-036-066-071-050200
...SOUTHWEST VIRGINIA/EAST TENNESSEE...

CITY           SKY/WX    TMP DP  RH WIND       PRES   REMARKS
WISE*          CLOUDY    48  46  93 NW3       29.71S
BRISTOL        CLOUDY    53  46  77 S3        29.70R
MORRISTOWN*    CLOUDY    54  48  82 NW8       29.74R
SEVIERVILLE*   MOCLDY    54  46  76 W6        29.73R
KNOXVILLE      CLOUDY    53  44  71 NW8       29.76R
OAK RIDGE      CLOUDY    51  48  89 E3        29.76F
CROSSVILLE     CLOUDY    49  46  90 W3        29.77R
NASHVILLE      PTCLDY    59  49  69 N8        29.78R
$$

...KEY TO REMARKS...
VSB - VISIBILITY IN MILES
WCI - WIND CHILL INDEX
HX  - HEAT INDEX

$$




USA.gov is the U.S. government's official web portal to all federal, state and local government web resources and services.